This is the latest recevied weather packets stored in our database for station/object KE9ADS. If no packets are shown the sender has not sent any weather packets the latest 10 day(s).
| Time | Temp. | Humidity | Pressure | Rain* | Wind** | Luminosity | Snow |
|---|---|---|---|---|---|---|---|
| 1777380696 | 9.44° C | 82% | 1016.7 hPa | 0 mm | - | 30 W/m² | - |
| 1777380095 | 8.89° C | 81% | 1016.6 hPa | 0 mm | - | 22 W/m² | - |
| 1777379493 | 9.44° C | 81% | 1016.6 hPa | 0 mm | - | 18 W/m² | - |
| 1777378889 | 9.44° C | 81% | 1016.2 hPa | 0 mm | - | 21 W/m² | - |
| 1777378287 | 9.44° C | 80% | 1016.1 hPa | 0 mm | - | 20 W/m² | - |
| 1777377686 | 9.44° C | 80% | 1015.9 hPa | 0 mm | - | 16 W/m² | - |
| 1777377084 | 9.44° C | 81% | 1015.8 hPa | 0 mm | - | 10 W/m² | - |
| 1777376484 | 9.44° C | 81% | 1015.7 hPa | 0 mm | - | 8 W/m² | - |
| 1777375881 | 9.44° C | 81% | 1015.4 hPa | 0 mm | - | 6 W/m² | - |
| 1777375277 | 9.44° C | 81% | 1015.1 hPa | 0 mm | - | 3 W/m² | - |
| 1777374675 | 9.44° C | 81% | 1015.1 hPa | 0 mm | - | 1 W/m² | - |
| 1777374074 | 8.89° C | 82% | 1014.9 hPa | 0 mm | - | 1 W/m² | - |
| 1777373474 | 8.89° C | 81% | 1014.9 hPa | 0 mm | - | 0 W/m² | - |
| 1777372870 | 9.44° C | 81% | 1014.8 hPa | 0 mm | - | 0 W/m² | - |
| 1777372269 | 9.44° C | 82% | 1014.6 hPa | 0 mm | - | 0 W/m² | - |
| 1777371665 | 9.44° C | 82% | 1014.2 hPa | 0 mm | - | 0 W/m² | - |
| 1777371065 | 9.44° C | 81% | 1013.9 hPa | 0 mm | - | 0 W/m² | - |
| 1777370462 | 9.44° C | 81% | 1013.8 hPa | 0 mm | - | 0 W/m² | - |
| 1777369861 | 10° C | 81% | 1013.6 hPa | 0 mm | - | 0 W/m² | - |
| 1777369258 | 10° C | 80% | 1013.6 hPa | 0 mm | - | 0 W/m² | - |
| 1777368657 | 10° C | 81% | 1013.6 hPa | 0 mm | - | 0 W/m² | - |
| 1777368055 | 10° C | 80% | 1013.2 hPa | 0 mm | - | 0 W/m² | - |
| 1777367455 | 10° C | 80% | 1013.3 hPa | 0 mm | - | 0 W/m² | - |
| 1777366849 | 10° C | 80% | 1013.2 hPa | 0 mm | - | 0 W/m² | - |
| 1777366244 | 10° C | 79% | 1013.3 hPa | 0 mm | - | 0 W/m² | - |
* Rain latest hour (hover to see other rain measurements)
** Current wind speed in m/s (hover to see current wind gust speed)